Regional Weather Roundup
Issued by NWS Raleigh/Durham, NC

Home | Current Version | Previous Version | Text Only | Print | Product List | Glossary On
Versions: 1 2 3 4 5 6 7 8 9 10 11 12 13 14 15 16 17 18 19 20 21 22 23 24 25 26
000
ASUS42 KRAH 271610
RWRRAH
NORTH CAROLINA WEATHER ROUNDUP
NATIONAL WEATHER SERVICE RALEIGH NC
1200 PM EDT THU JUL 27 2017

NOTE: "FAIR" INDICATES FEW OR NO CLOUDS BELOW 12,000 FEET WITH NO
SIGNIFICANT WEATHER AND/OR OBSTRUCTIONS TO VISIBILITY.

NCZ001-053-055-056-065-067-271700-
WESTERN NORTH CAROLINA

CITY           SKY/WX    TMP DP  RH WIND       PRES   REMARKS
ASHEVILLE      PTSUNNY   82  71  69 S9        30.12F
JEFFERSON      CLOUDY    75  65  71 W5        30.16F
MORGANTON      MOSUNNY   82  69  66 SW3       30.12F
HICKORY        MOSUNNY   83  71  67 VRB7      30.07F
RUTHERFORDTON  PTSUNNY   83  72  69 S10G22    30.08F
MOUNT AIRY     PTSUNNY   82  72  71 SW5       30.08F
BOONE          CLOUDY    71  65  79 W3        30.18S
$$

NCZ021-022-025-041-071-084-088-271700-
CENTRAL NORTH CAROLINA

CITY           SKY/WX    TMP DP  RH WIND       PRES   REMARKS
CHARLOTTE      PTSUNNY   85  74  69 SW8       30.07F
GREENSBORO     CLOUDY    84  74  71 W13       30.05F
WINSTON-SALEM  PTSUNNY   83  72  69 S9        30.06F
RALEIGH-DURHAM PTSUNNY   88  68  51 SW14      30.05F
FORT BRAGG     SUNNY     86  69  55 S7        30.05F
FAYETTEVILLE   MOSUNNY   87  72  60 S8        30.05F
BURLINGTON     CLOUDY    87  71  58 S13       30.04F
LAURINBURG     MOSUNNY   86  74  67 VRB5      30.06F
$$

NCZ011-015-027-028-043-044-047-080-103-271700-
NORTHEASTERN NORTH CAROLINA

CITY           SKY/WX    TMP DP  RH WIND       PRES   REMARKS
ROCKY MT-WILSO MOSUNNY   85  72  65 S9        30.04F
GREENVILLE     MOSUNNY   84  70  61 W7        30.07F
WASHINGTON     SUNNY     84  69  60 SW6       30.06F
ELIZABETH CITY CLOUDY    83  72  69 W10       30.05F
MANTEO         PTSUNNY   81  68  64 S5        30.06S
CAPE HATTERAS  SUNNY     86  69  56 S6        30.07S
$$

NCZ078-087-090-091-093-098-101-271700-
SOUTHEASTERN NORTH CAROLINA

CITY           SKY/WX    TMP DP  RH WIND       PRES   REMARKS
LUMBERTON      SUNNY     86  71  60 VRB7      30.04F
GOLDSBORO      MOSUNNY   88  69  53 SW8       30.03F
KINSTON        MOSUNNY   90  66  45 SW9       30.06F
KENANSVILLE    SUNNY     86  70  58 W7        30.06F
NEW BERN       SUNNY     87  68  52 VRB6      30.07F
CHERRY POINT   SUNNY     87  69  54 S7        30.07S
BEAUFORT       SUNNY     84  73  69 SW9       30.06F
JACKSONVILLE   MOSUNNY   87  73  62 SE9       30.05F
WILMINGTON     SUNNY     86  67  52 S6        30.06F
$$





USA.gov is the U.S. government's official web portal to all federal, state and local government web resources and services.